[[{"header":{"parameterUnit":"m.s-1","parameterCategory":1,"la1":30.2991,"la2":30.254,"lo1":-89.0895,"lo2":-89.0444,"dy":0.0017,"dx":0.0017,"nx":28,"ny":28,"refTime":"2023-09-16T09:00:00:Z","depth":0,"parameterNumber":2,"parameterNumberName":"U-component_of_WINDS"},"data":[0,0,0,0,0,0,0,0,0,0,0,0,0,0,0,0,0,0,0,0,0,0,0,0,0,0,0,0,0,0,0,0,0,0,0,0,0,0,0,0,0,0,0,0,0,0,0,0,0,0,0,0,0,0,0,0,0,0,1.6912,1.6913,0,1.6959,1.696,1.696,1.6959,1.6958,1.6958,1.6957,1.7005,1.7007,1.7009,0,0,0,0,0,0,0,0,0,0,0,0,0,1.6822,1.6823,1.6912,1.6913,1.6913,1.6959,1.696,1.6961,1.6959,1.6958,1.6958,1.6957,1.7005,1.7007,1.7009,0,0,0,0,0,0,0,0,0,0,0,0,0,1.6864,1.6824,1.6912,1.6918,1.6919,1.6959,1.696,1.6961,1.6959,1.6958,1.6957,1.6956,1.7004,1.7007,1.701,1.7047,0,0,1.7018,1.702,0,0,0,0,0,0,0,0,1.6862,1.6867,1.6917,1.6918,1.6919,1.6952,1.6946,1.699,1.696,1.6944,1.6957,1.6956,1.6989,1.6993,1.7004,1.7049,1.7051,1.7019,1.702,1.7022,1.7022,0,0,0,0,0,0,0,1.6859,1.6865,1.6931,1.6917,1.6919,1.6919,1.6924,1.6954,1.6971,1.6945,1.6945,1.6951,1.6989,1.7001,1.7005,1.7052,1.7019,1.7021,1.7023,1.7024,1.7131,1.7132,0,0,0,0,0,0,1.6854,1.6863,1.6929,1.6932,1.6887,1.6921,1.6927,1.6943,1.6971,1.6974,1.6952,1.6951,1.6997,1.7001,1.7006,1.7052,1.7022,1.7024,1.7026,1.713,1.7131,1.7132,0,0,0,0,0,0,1.6853,1.686,1.6927,1.6898,1.6906,1.6924,1.6942,1.6944,1.6956,1.6976,1.6979,1.6961,1.6996,1.7002,1.7037,1.7054,1.7025,1.7028,1.7129,1.713,1.7132,1.7143,0,0,0,0,0,0,1.685,1.686,1.6873,1.6898,1.6908,1.6957,1.6943,1.6946,1.6961,1.696,1.6985,1.6988,1.6996,1.7033,1.704,1.7057,1.703,1.7127,1.7129,1.7131,1.7141,1.7145,1.7148,0,0,0,0,0,1.6847,1.6875,1.6874,1.6882,1.6925,1.6958,1.6963,1.6971,1.6962,1.6976,1.6989,1.6987,1.7051,1.7036,1.7044,1.7062,1.7126,1.7129,1.7131,1.714,1.7144,1.7148,0,0,0,0,0,0,1.6851,1.6878,1.6878,1.6914,1.6934,1.6957,1.6975,1.6976,1.6998,1.6996,1.7006,1.7012,1.7046,1.7058,1.7041,1.71,1.7087,1.7092,1.7091,1.7096,1.7099,1.7095,1.7033,0,0,0,0,0,1.6856,1.688,1.6902,1.6932,1.6942,1.6957,1.6972,1.6976,1.6997,1.7005,1.7021,1.7041,1.7065,1.7081,1.7105,1.7144,1.7149,1.716,1.7164,1.7166,1.717,1.7192,1.7197,1.7141,1.7141,1.7141,0,0,1.6867,1.6885,1.6899,1.6934,1.6949,1.6974,1.6964,1.699,1.7009,1.7009,1.7042,1.7055,1.7078,1.7115,1.7132,1.7126,1.7187,1.717,1.7172,1.7173,1.7195,1.72,1.7205,1.7143,1.7142,1.7142,0,0,1.69,1.6916,1.6942,1.6959,1.6983,1.6993,1.7,1.7024,1.7032,1.7066,1.7067,1.7089,1.7131,1.7148,1.7162,1.7203,1.7202,1.7211,1.7228,1.725,1.7254,1.7258,1.7273,1.7278,1.7214,1.7214,1.7214,0,1.691,1.6947,1.6956,1.6983,1.6999,1.7001,1.7028,1.7044,1.7074,1.7085,1.7078,1.7132,1.7148,1.7189,1.7199,1.721,1.7219,1.7207,1.7253,1.7257,1.726,1.7275,1.728,1.7215,1.7215,1.7215,1.7215,0,1.6959,1.6985,1.7004,1.7034,1.7052,1.7079,1.7092,1.711,1.7114,1.7125,1.716,1.7179,1.7207,1.7218,1.7221,1.726,1.7255,1.7251,1.7237,1.7266,1.728,1.7285,1.7216,1.7216,1.7216,1.7216,0,0,1.6994,1.703,1.7036,1.705,1.7078,1.7098,1.7126,1.7154,1.7168,1.719,1.7214,1.7251,1.7247,1.7263,1.7269,1.7288,1.7319,1.7281,1.7281,1.7287,1.7363,1.7366,1.7372,1.732,1.7321,1.7321,1.7361,0,1.7029,1.7078,1.7088,1.713,1.7154,1.7158,1.7182,1.7202,1.7214,1.7237,1.725,1.7275,1.7268,1.7278,1.7297,1.7311,1.7335,1.7309,1.7342,1.7343,1.7335,1.7379,1.7382,1.7418,1.7366,1.7367,1.7368,0,1.7075,1.7099,1.7144,1.7169,1.718,1.7201,1.7228,1.725,1.7273,1.7281,1.7299,1.7304,1.7334,1.732,1.7362,1.7344,1.7359,1.7368,1.737,1.7372,1.7356,1.7382,1.743,1.7435,1.7376,1.7376,1.7375,0,1.7096,1.7139,1.7171,1.7183,1.7214,1.7229,1.7243,1.7265,1.7281,1.7305,1.7316,1.7343,1.7358,1.7379,1.7391,1.738,1.7432,1.742,1.7439,1.7439,1.7449,1.7448,1.7499,1.7459,1.7459,1.7459,1.7459,0,1.7133,1.7161,1.7181,1.7201,1.7232,1.7244,1.7275,1.7288,1.7309,1.7332,1.7337,1.7358,1.7373,1.7398,1.7407,1.7441,1.7447,1.7454,1.7456,1.7453,1.7452,1.7462,1.7459,1.7461,1.746,1.746,1.746,0,1.7161,1.7175,1.7211,1.7238,1.7245,1.7267,1.729,1.731,1.7323,1.7352,1.7359,1.7379,1.7408,1.7422,1.7458,1.7465,1.7502,1.7503,1.7494,1.7495,1.7513,1.7511,1.7572,1.758,1.7536,1.7536,1.7537,0,1.7183,1.7204,1.7234,1.7249,1.7263,1.7289,1.7306,1.7319,1.7337,1.7366,1.7383,1.7412,1.7436,1.7482,1.7499,1.7527,1.7528,1.7548,1.7533,1.7529,1.7528,1.7527,1.7529,1.755,1.755,1.7551,1.7551,0,1.7221,1.7228,1.7252,1.7279,1.73,1.7322,1.7344,1.7357,1.7374,1.7394,1.7423,1.7442,1.7479,1.7508,1.7538,1.7552,1.7555,1.7556,1.7562,1.7558,1.7552,1.7556,1.7501,1.7554,1.7554,1.7554,1.7554,1.7553,1.7246,1.7266,1.729,1.7317,1.7335,1.7356,1.7376,1.7391,1.7416,1.7447,1.7454,1.7486,1.751,1.755,1.7566,1.7591,1.7587,1.7595,1.7597,1.7599,1.76,1.7549,1.7596,1.7596,1.7596,1.7596,1.7596,0,1.7284,1.73,1.7325,1.7356,1.7378,1.7379,1.7404,1.7422,1.745,1.7472,1.7496,1.7531,1.7559,1.758,1.7609,1.7626,1.7628,1.7633,1.7631,1.7635,1.7602,1.7594,1.7631,1.7631,1.7631,1.7631,1.7631,1.7631,1.7307,1.7339,1.7349,1.7392,1.7407,1.7438,1.7452,1.7472,1.749,1.7528,1.7552,1.7566,1.7588,1.7619,1.7646,1.7651,1.7662,1.7667,1.7672,1.7641,1.7637,1.7633,1.7626,1.7669,1.7669,1.7703,1.7703,1.7704]},{"header":{"parameterUnit":"m.s-1","parameterCategory":1,"la1":30.2991,"la2":30.254,"lo1":-89.0895,"lo2":-89.0444,"dy":0.0017,"dx":0.0017,"nx":28,"ny":28,"refTime":"2023-09-16T09:00:00:Z","depth":0,"parameterNumber":3,"parameterNumberName":"V-component_of_WINDS"},"data":[0,0,0,0,0,0,0,0,0,0,0,0,0,0,0,0,0,0,0,0,0,0,0,0,0,0,0,0,0,0,0,0,0,0,0,0,0,0,0,0,0,0,0,0,0,0,0,0,0,0,0,0,0,0,0,0,0,0,-3.4446,-3.4448,0,-3.4611,-3.4613,-3.4615,-3.4596,-3.4593,-3.4591,-3.4588,-3.4755,-3.4762,-3.4768,0,0,0,0,0,0,0,0,0,0,0,0,0,-3.4114,-3.4121,-3.4446,-3.4448,-3.445,-3.4611,-3.4613,-3.4615,-3.4596,-3.4593,-3.459,-3.4587,-3.4753,-3.4761,-3.4769,0,0,0,0,0,0,0,0,0,0,0,0,0,-3.4267,-3.4123,-3.4446,-3.446,-3.4463,-3.461,-3.4613,-3.4616,-3.4597,-3.4593,-3.4589,-3.4585,-3.475,-3.476,-3.477,-3.4913,0,0,-3.4802,-3.4806,0,0,0,0,0,0,0,0,-3.4258,-3.4279,-3.4456,-3.446,-3.4463,-3.4579,-3.4557,-3.4715,-3.4598,-3.4546,-3.4588,-3.4584,-3.4699,-3.4714,-3.4753,-3.492,-3.4928,-3.4803,-3.4809,-3.4813,-3.4816,0,0,0,0,0,0,0,-3.4248,-3.4272,-3.4511,-3.4459,-3.4463,-3.4458,-3.4475,-3.4587,-3.4643,-3.455,-3.4549,-3.4569,-3.4701,-3.4743,-3.4757,-3.493,-3.4802,-3.4812,-3.4818,-3.4822,-3.5222,-3.5226,0,0,0,0,0,0,-3.4234,-3.4263,-3.4506,-3.4516,-3.4349,-3.4467,-3.4487,-3.4546,-3.4642,-3.4652,-3.4572,-3.4568,-3.4727,-3.4745,-3.4763,-3.4936,-3.4813,-3.4823,-3.4829,-3.5218,-3.5223,-3.5228,0,0,0,0,0,0,-3.4227,-3.4256,-3.4499,-3.439,-3.442,-3.4477,-3.4544,-3.4551,-3.4594,-3.4658,-3.4668,-3.4606,-3.4725,-3.4748,-3.4876,-3.4941,-3.4828,-3.4837,-3.5212,-3.5219,-3.5225,-3.5283,0,0,0,0,0,0,-3.4217,-3.4253,-3.4308,-3.4391,-3.4426,-3.461,-3.4548,-3.4557,-3.4612,-3.4607,-3.4692,-3.4702,-3.4724,-3.486,-3.4886,-3.4953,-3.4845,-3.5207,-3.5216,-3.5223,-3.5276,-3.5291,-3.5304,0,0,0,0,0,-3.4205,-3.4318,-3.4311,-3.4341,-3.4496,-3.4614,-3.4634,-3.4657,-3.4617,-3.4673,-3.4714,-3.47,-3.493,-3.4873,-3.4902,-3.4974,-3.5203,-3.5213,-3.5223,-3.5269,-3.5288,-3.5304,0,0,0,0,0,0,-3.4241,-3.4329,-3.4323,-3.4465,-3.4532,-3.4611,-3.4682,-3.4676,-3.4756,-3.4748,-3.4772,-3.4792,-3.492,-3.496,-3.4895,-3.5116,-3.5061,-3.5077,-3.5086,-3.5105,-3.5118,-3.5107,-3.4854,0,0,0,0,0,-3.4265,-3.4354,-3.4426,-3.4545,-3.4579,-3.4625,-3.4677,-3.4688,-3.4759,-3.4787,-3.4838,-3.4906,-3.4994,-3.5051,-3.5136,-3.5281,-3.5299,-3.5344,-3.5358,-3.537,-3.5384,-3.5463,-3.5484,-3.5261,-3.5261,-3.526,0,0,-3.4317,-3.4376,-3.443,-3.4553,-3.4607,-3.4698,-3.4649,-3.4747,-3.4815,-3.4802,-3.4926,-3.4965,-3.5043,-3.518,-3.5243,-3.5217,-3.5449,-3.5382,-3.5391,-3.5399,-3.5475,-3.5496,-3.5515,-3.5267,-3.5266,-3.5265,0,0,-3.4457,-3.4511,-3.4616,-3.467,-3.4752,-3.4782,-3.4807,-3.4887,-3.4912,-3.5037,-3.5029,-3.5109,-3.526,-3.5316,-3.5364,-3.5525,-3.5515,-3.5552,-3.5626,-3.5703,-3.5721,-3.5736,-3.5794,-3.5814,-3.5565,-3.5565,-3.5565,0,-3.4511,-3.4648,-3.467,-3.477,-3.4824,-3.4817,-3.4923,-3.4975,-3.508,-3.5117,-3.5086,-3.5275,-3.5327,-3.5477,-3.5516,-3.5555,-3.5584,-3.5542,-3.5716,-3.5732,-3.5747,-3.5802,-3.5824,-3.5569,-3.5569,-3.5568,-3.5568,0,-3.471,-3.4806,-3.488,-3.4982,-3.5045,-3.5147,-3.5184,-3.5245,-3.525,-3.5283,-3.541,-3.5472,-3.5568,-3.5604,-3.5611,-3.5755,-3.5737,-3.5711,-3.5656,-3.5772,-3.5824,-3.5846,-3.5575,-3.5573,-3.5572,-3.5571,0,0,-3.4879,-3.4991,-3.5018,-3.5064,-3.5154,-3.5228,-3.5329,-3.5424,-3.5475,-3.5548,-3.5633,-3.5761,-3.5738,-3.5792,-3.5805,-3.5872,-3.5996,-3.5839,-3.5841,-3.5866,-3.6158,-3.6177,-3.6202,-3.5989,-3.5993,-3.5997,-3.6152,0,-3.5028,-3.5209,-3.5231,-3.5391,-3.548,-3.5473,-3.5562,-3.5626,-3.5659,-3.5738,-3.5774,-3.5864,-3.5826,-3.5859,-3.5926,-3.5967,-3.6055,-3.5956,-3.6069,-3.6073,-3.605,-3.6229,-3.625,-3.6393,-3.6172,-3.6176,-3.6178,0,-3.5227,-3.5305,-3.5475,-3.5551,-3.5589,-3.5668,-3.5757,-3.5833,-3.5905,-3.5924,-3.5985,-3.5989,-3.6093,-3.6033,-3.6177,-3.6109,-3.6156,-3.6183,-3.6189,-3.6201,-3.6133,-3.6246,-3.644,-3.6461,-3.6211,-3.6208,-3.6206,0,-3.5333,-3.5481,-3.5601,-3.5641,-3.5733,-3.5789,-3.583,-3.5898,-3.5954,-3.6031,-3.6067,-3.6155,-3.6203,-3.6271,-3.6298,-3.6252,-3.6441,-3.6383,-3.6459,-3.6459,-3.65,-3.6497,-3.6704,-3.6529,-3.6529,-3.6529,-3.6528,0,-3.5498,-3.5602,-3.565,-3.5724,-3.584,-3.5864,-3.5978,-3.6017,-3.6077,-3.6158,-3.6158,-3.6234,-3.6265,-3.6346,-3.6367,-3.6483,-3.6505,-3.6523,-3.6527,-3.6523,-3.6521,-3.6555,-3.6546,-3.6534,-3.6533,-3.6532,-3.6531,0,-3.5637,-3.5673,-3.5804,-3.5881,-3.5902,-3.5985,-3.605,-3.6121,-3.6153,-3.6255,-3.6281,-3.633,-3.6425,-3.6459,-3.6574,-3.6589,-3.6723,-3.6719,-3.6699,-3.67,-3.6775,-3.6767,-3.7012,-3.7045,-3.6848,-3.685,-3.6851,0,-3.574,-3.582,-3.5905,-3.596,-3.6003,-3.6091,-3.6147,-3.6174,-3.6232,-3.632,-3.6381,-3.6475,-3.6552,-3.6704,-3.675,-3.6838,-3.6836,-3.6915,-3.6849,-3.6842,-3.6837,-3.6833,-3.6841,-3.6928,-3.693,-3.6932,-3.6933,0,-3.592,-3.5934,-3.6016,-3.6104,-3.6172,-3.6242,-3.6311,-3.6355,-3.6392,-3.6458,-3.6555,-3.6615,-3.6732,-3.6826,-3.6915,-3.6957,-3.6951,-3.6953,-3.6976,-3.6973,-3.6958,-3.6967,-3.6733,-3.6948,-3.6946,-3.6945,-3.6944,-3.6944,-3.6044,-3.6115,-3.6186,-3.6277,-3.6331,-3.6395,-3.6466,-3.6506,-3.6588,-3.6686,-3.6696,-3.6801,-3.687,-3.699,-3.7036,-3.7117,-3.7096,-3.7128,-3.7136,-3.7144,-3.715,-3.6944,-3.7134,-3.7133,-3.7133,-3.7133,-3.7132,0,-3.6224,-3.6269,-3.6353,-3.6449,-3.652,-3.6509,-3.6584,-3.6644,-3.6737,-3.6802,-3.6877,-3.6989,-3.7079,-3.7132,-3.7223,-3.7278,-3.7277,-3.7301,-3.7297,-3.7307,-3.7164,-3.7136,-3.7299,-3.7299,-3.7299,-3.7299,-3.7299,-3.7299,-3.6326,-3.6445,-3.6467,-3.6612,-3.6657,-3.676,-3.6803,-3.6862,-3.6914,-3.7039,-3.7114,-3.7148,-3.7208,-3.7303,-3.7385,-3.7398,-3.7432,-3.7457,-3.7468,-3.7334,-3.7317,-3.73,-3.7274,-3.7464,-3.7464,-3.7604,-3.7606,-3.7607]}]]